Temperature
18 18 17 17 17 17 17 16 16 16 16 16 15 15 15 15 15 15 15 15 15 15 15 15 15 15 15 15 14 14 14 14 14 14 14 14 14 14 13 13 13 13 13
19 18 17 17 17 17 17 17 16 16 16 15 15 15 15 15 15 15 15 15 15 15 15 15 15 15 15 15 14 14 14 14 14 14 14 14 14 13 13 13 13 13 13
19 18 18 17 17 17 17 16 16 16 16 15 15 15 15 15 15 15 15 15 15 15 15 15 15 15 15 14 14 14 14 14 14 14 14 15 15 14 13 13 13 13 13
18 18 17 17 17 17 16 16 16 16 15 15 15 15 15 15 15 15 15 15 15 15 15 15 15 15 14 15 14 14 14 14 14 14 14 14 14 14 14 13 13 13 13
18 18 17 17 17 17 16 16 16 16 15 15 15 15 15 15 15 15 15 15 15 15 15 14 14 14 14 14 14 14 14 14 14 14 14 14 14 14 14 14 13 13 13
18 18 17 17 17 16 16 16 16 16 15 15 15 15 15 15 15 15 15 14 14 14 14 14 14 14 14 14 14 14 14 14 14 14 14 14 14 14 14 14 13 13 12
18 18 17 17 16 16 16 16 16 15 15 15 15 15 15 15 14 14 14 14 14 14 14 14 14 14 14 14 14 14 14 14 14 14 14 14 14 13 14 14 14 13 12
18 18 17 17 16 16 16 16 15 15 15 15 15 15 15 14 14 14 14 14 14 14 14 14 14 14 14 14 14 14 14 14 14 14 14 14 13 13 13 13 13 13 13
18 18 17 17 16 16 16 16 15 15 15 15 15 15 15 14 14 14 14 14 14 14 14 14 14 14 14 14 14 14 14 14 14 14 14 14 13 13 13 13 13 13 14
18 17 17 17 17 16 16 16 15 15 15 15 15 15 15 14 14 14 14 14 14 14 14 14 14 14 14 14 14 14 14 14 14 14 14 14 13 13 13 13 13 13 13
18 17 17 17 17 16 16 16 15 15 15 15 15 15 15 14 14 14 14 14 14 14 14 14 14 14 14 14 14 14 14 14 14 14 14 14 14 13 13 13 13 13 13
18 17 17 16 16 16 16 16 15 15 15 15 15 15 14 14 14 14 14 14 14 14 14 14 14 14 14 14 14 14 14 13 13 13 13 13 13 13 13 13 13 13 12
18 17 17 16 16 16 16 16 15 15 15 15 14 14 14 14 14 14 14 14 14 14 14 13 14 14 13 13 13 13 13 13 13 13 13 13 13 13 13 13 13 13 12
17 17 16 16 16 16 16 15 15 15 15 15 14 14 14 14 14 14 14 14 14 13 13 13 13 13 13 13 13 13 13 13 13 13 13 13 13 13 13 13 13 12 12
17 17 16 16 16 16 15 15 15 15 15 14 14 14 14 14 14 14 14 14 14 13 13 13 13 13 13 13 13 13 13 13 13 13 13 13 13 13 13 12 12 12 12
17 16 16 16 16 16 15 15 15 15 15 14 14 14 14 14 14 14 14 14 14 13 13 13 13 13 13 13 13 13 13 13 13 13 13 13 13 13 13 13 12 12 12
17 16 16 16 16 16 16 15 15 15 14 14 14 14 14 14 14 13 14 14 14 13 13 13 13 13 13 13 13 13 12 12 12 12 12 12 12 12 12 12 12 12 12
16 16 16 16 16 15 15 15 15 15 14 14 14 14 14 14 13 13 13 13 13 13 13 13 13 13 13 13 13 13 12 12 12 12 12 12 12 12 12 11 11 11 11
16 16 15 15 15 15 15 15 15 14 14 14 14 14 14 13 13 13 13 13 13 13 13 13 13 13 13 13 13 13 12 12 12 12 12 12 12 12 12 11 11 11 11
15 15 15 15 15 15 15 14 14 14 14 14 14 14 13 13 13 13 13 13 13 13 13 13 13 12 12 12 12 12 12 12 12 12 12 12 12 12 11 11 11 10 10
15 15 15 15 15 14 14 14 14 14 14 14 14 13 13 13 13 13 13 13 13 13 13 13 12 12 12 12 12 12 12 12 11 11 11 11 11 11 11 11 11 10 10
15 15 15 15 14 14 14 14 14 14 13 13 13 13 13 13 13 13 13 13 12 13 12 12 12 12 12 12 12 12 12 12 11 11 11 11 11 11 11 11 11 10 10
15 14 14 14 14 14 14 13 13 13 13 13 13 13 13 12 12 12 12 12 12 12 12 12 12 12 12 12 12 12 12 11 11 11 11 11 11 11 11 10 10 10 10
14 14 14 14 13 13 13 13 13 13 13 12 12 12 12 12 12 12 12 12 12 12 12 12 12 12 11 11 11 11 11 11 11 11 11 10 10 10 10 10 10 10 9
14 14 14 13 13 13 13 13 13 12 12 12 12 12 12 12 12 12 12 12 12 12 12 12 11 11 11 12 12 11 11 11 10 10 10 10 10 10 9 10 9 9 9
13 13 13 13 13 12 12 12 12 12 12 12 12 12 12 11 11 11 11 12 12 12 12 12 11 11 11 11 11 11 11 11 10 10 9 10 9 9 9 9 9 9 9
Wind_Speed
4 4 4 4 4 3 3 3 3 3 2 2 1 1 1 1 1 1 2 1 1 1 2 2 3 2 3 3 4 4 4 3 3 3 3 4 5 5 5 5 5 7 7
5 5 5 5 4 4 3 3 2 2 2 1 1 1 1 1 1 1 2 1 1 1 1 2 2 3 2 3 4 3 2 2 1 0 1 1 3 3 3 3 4 5 6
5 6 6 6 5 4 4 3 2 2 2 2 1 1 1 1 1 2 1 1 1 1 1 1 2 3 3 3 3 3 3 2 1 1 1 1 1 1 2 3 3 4 4
5 6 6 6 6 5 4 4 3 3 2 2 1 1 0 0 0 0 1 1 1 1 1 1 2 2 2 3 3 3 2 2 1 1 1 1 0 1 1 2 3 4 4
6 6 6 6 6 6 5 4 3 3 3 2 1 1 1 0 0 0 1 1 1 1 1 1 2 2 2 2 2 2 3 2 2 1 0 0 1 2 1 1 1 2 3
6 5 6 6 6 5 5 4 4 3 3 2 2 2 1 1 1 1 1 1 1 1 1 1 1 2 2 2 2 3 3 3 2 2 2 1 1 1 1 1 1 1 2
6 6 7 7 7 6 6 5 5 4 3 3 2 2 2 2 2 1 1 1 1 1 1 1 1 1 1 1 2 2 2 3 3 3 2 1 1 1 1 1 1 1 1
7 7 7 7 7 7 6 6 5 4 4 3 3 2 2 2 2 2 1 1 1 1 1 1 1 0 1 1 1 2 2 2 2 3 2 2 2 1 2 2 2 2 1
7 7 7 7 6 7 7 6 5 4 4 4 3 3 3 2 2 2 2 1 1 1 1 1 1 1 1 1 1 1 2 2 2 2 3 3 2 2 2 2 3 3 2
7 7 7 6 6 6 6 6 5 5 4 4 3 3 3 3 3 2 3 3 2 2 2 2 1 1 1 1 1 1 1 2 2 1 2 2 2 2 2 3 3 3 3
6 7 6 6 5 5 5 5 5 5 5 4 4 4 4 3 3 3 3 3 3 3 2 2 2 2 2 2 2 2 2 2 2 2 2 2 2 2 2 2 2 2 2
6 6 6 6 6 5 5 5 5 5 5 5 4 4 4 4 4 4 4 4 3 3 3 3 2 2 2 2 2 2 2 2 2 2 2 1 1 2 2 2 2 2 3
5 6 6 6 6 5 5 5 5 5 4 5 5 5 5 5 5 5 4 4 4 4 4 3 3 2 2 2 2 3 2 2 2 2 2 1 2 2 2 3 3 2 2
5 6 6 6 5 5 5 5 4 4 4 5 5 5 5 5 5 5 5 5 5 5 4 4 3 3 3 3 3 3 2 2 2 2 2 2 2 2 2 3 3 3 3
6 6 6 6 6 5 5 4 4 4 4 4 5 4 5 4 4 5 5 5 5 5 5 4 4 4 3 3 3 3 3 2 2 2 1 1 1 3 2 2 3 3 3
6 6 6 6 6 6 5 5 4 4 4 4 4 3 3 3 4 4 4 4 4 5 5 5 5 4 3 2 2 3 4 4 3 2 2 1 1 1 1 1 2 3 4
6 6 6 6 6 6 6 5 5 4 4 4 4 3 3 3 4 4 4 4 5 5 5 5 5 5 4 4 4 4 5 4 4 3 3 2 1 2 2 2 3 2 3
6 6 6 6 6 6 6 6 5 5 4 4 3 3 4 4 4 4 4 4 4 4 4 5 5 4 3 5 5 5 6 4 4 4 3 3 3 2 2 2 2 2 2
5 5 5 5 6 6 6 6 6 5 5 4 4 4 4 4 4 5 5 4 4 4 5 5 5 5 5 5 5 5 4 4 4 4 4 3 3 2 3 3 3 3 2
3 4 5 5 5 5 6 7 7 6 6 5 5 4 4 4 5 5 5 4 4 5 4 4 5 5 5 5 5 6 4 5 4 3 3 3 3 3 4 5 4 4 3
3 4 5 5 4 5 6 7 7 7 6 5 5 4 4 4 4 4 4 4 4 4 4 4 4 5 5 5 6 6 5 5 4 3 3 3 4 4 4 5 5 4 4
3 4 5 4 4 5 5 6 6 6 5 5 5 5 5 4 3 4 4 4 4 4 4 4 4 4 4 4 5 7 6 5 5 4 3 3 4 4 4 4 3 3 4
3 4 5 4 4 5 5 6 5 4 5 5 5 5 5 4 4 4 4 4 4 4 4 4 4 4 4 4 6 7 7 6 4 3 2 3 4 4 4 4 4 4 4
3 4 4 5 4 5 5 5 4 4 5 5 5 5 5 4 4 3 4 4 4 4 5 5 5 5 4 4 4 4 5 5 4 3 3 5 5 4 3 3 4 4 4
3 4 5 5 5 4 4 4 4 4 5 5 5 5 5 4 4 4 4 5 4 5 5 5 5 5 6 5 4 4 4 4 4 4 3 3 3 3 4 4 4 4 4
3 4 4 4 4 4 4 4 4 5 5 5 5 4 4 4 4 4 4 3 4 3 5 5 5 5 4 3 5 5 4 4 5 5 5 5 5 5 5 5 5 4 4
Wind_Direction
185 171 167 171 167 154 140 122 127 113 101 93 87 65 65 73 82 73 66 82 95 115 119 138 139 148 141 134 137 127 121 113 108 107 97 91 75 66 59 53 55 60 59
189 177 179 181 183 165 162 142 136 131 120 103 77 92 68 59 71 82 80 69 81 109 133 155 157 160 152 155 152 153 140 128 164 113 154 133 117 79 63 62 52 55 64
195 185 183 182 179 173 170 163 157 150 137 122 114 107 109 148 129 106 95 68 70 114 179 158 158 168 177 170 176 180 181 176 187 294 313 311 63 86 89 61 61 56 56
201 193 187 185 180 176 175 172 164 156 140 140 142 141 112 40 42 73 117 129 117 130 157 163 174 183 184 185 193 195 199 208 208 198 306 337 41 266 131 108 71 57 55
198 195 190 184 177 169 170 175 167 161 157 156 157 225 244 319 117 124 135 144 120 109 137 160 176 192 196 203 210 212 215 214 232 229 184 119 223 255 234 151 121 89 66
188 187 182 179 174 168 169 176 177 173 175 183 190 211 218 224 205 198 167 160 139 127 117 152 186 197 202 208 216 216 213 226 229 233 229 228 247 243 226 209 189 130 84
183 179 176 178 178 179 180 183 185 185 189 201 210 218 228 230 221 213 194 194 165 156 149 182 216 201 199 206 216 217 213 214 220 223 235 249 265 268 264 224 203 179 160
184 182 179 179 182 184 187 191 191 193 194 205 211 219 223 237 238 232 220 209 201 181 165 196 224 198 198 195 201 220 209 212 211 216 218 220 236 246 248 247 224 216 199
184 182 179 182 185 188 191 198 200 200 200 207 214 221 221 223 226 228 217 212 204 187 186 187 195 180 190 197 199 223 213 215 218 214 214 216 212 230 240 242 245 253 245
180 180 182 187 190 190 192 196 202 206 207 213 213 210 220 221 225 218 211 212 207 198 206 211 193 182 187 193 204 226 238 217 205 212 219 220 218 211 225 233 237 252 259
184 183 185 187 186 185 191 195 201 209 211 214 213 212 217 220 215 213 215 220 215 211 217 219 223 206 204 203 199 219 213 212 205 200 208 221 225 215 215 218 221 230 234
186 183 181 182 186 189 194 200 205 209 212 217 217 221 220 218 216 213 213 217 216 219 223 217 223 224 229 231 216 211 218 222 221 223 222 216 200 217 216 208 215 214 224
185 183 182 186 190 193 198 205 210 215 214 219 223 227 225 223 222 222 216 218 221 218 217 217 220 221 226 229 232 221 217 218 220 225 235 234 225 221 204 207 211 208 205
188 187 187 191 192 197 201 205 209 213 215 219 225 232 232 226 225 224 222 220 221 222 221 221 222 224 232 233 229 223 218 217 218 219 230 250 253 254 235 222 216 206 199
192 193 191 190 190 194 199 201 205 209 213 219 227 232 234 229 226 221 222 220 221 225 222 219 223 224 234 236 234 226 221 222 223 219 226 250 346 351 306 261 226 209 208
204 200 197 192 196 199 199 198 203 209 213 220 227 233 233 228 226 223 223 221 221 224 221 222 223 222 226 185 230 247 228 229 228 225 225 203 180 144 182 289 280 251 227
211 204 204 202 204 206 202 199 203 202 206 212 215 214 219 219 229 223 221 220 217 215 218 223 225 225 208 173 196 234 243 238 234 230 228 226 212 194 207 183 189 217 250
214 212 216 215 211 209 206 205 203 203 205 212 215 215 220 218 218 221 224 227 222 215 219 224 225 225 206 178 194 218 232 235 233 232 230 224 220 216 229 219 224 234 226
222 219 221 218 213 211 210 207 208 208 212 218 224 220 225 227 224 222 224 226 226 223 222 222 222 218 208 183 191 215 226 231 228 228 231 234 231 189 214 223 229 235 237
218 211 214 216 211 212 210 209 211 214 221 226 230 226 226 229 231 229 231 227 221 223 222 222 227 225 221 184 191 217 223 228 228 223 223 225 237 199 212 225 228 233 240
207 201 203 208 208 205 209 215 218 223 229 229 229 227 228 232 237 235 233 225 217 214 218 222 227 227 223 192 193 214 225 227 225 225 227 216 192 213 224 243 240 240 247
210 206 206 206 200 199 206 217 228 235 232 228 230 233 233 231 236 230 233 230 216 214 219 224 226 228 219 207 198 204 224 245 227 230 232 211 182 204 220 233 235 229 238
223 214 210 204 203 204 210 220 230 234 229 224 229 234 232 228 232 227 229 228 223 225 228 227 230 229 222 206 197 202 210 227 230 229 225 201 184 196 210 218 223 221 230
230 211 203 209 213 212 217 225 224 224 227 228 231 233 231 232 234 235 231 228 229 231 232 233 233 234 228 224 212 213 211 206 220 226 193 184 192 209 218 214 216 232 238
232 216 214 216 220 219 217 219 223 227 231 233 234 234 232 234 238 238 238 234 234 235 234 234 233 232 234 230 216 214 215 215 214 211 209 209 207 217 223 227 230 234 234
239 230 227 224 221 216 216 214 217 225 232 235 237 237 235 234 237 240 247 243 241 231 238 251 253 247 249 215 200 212 208 190 183 198 216 220 221 225 229 231 232 233 236
Height
1557 1558 1559 1559 1560 1561 1562 1562 1562 1562 1562 1562 1562 1562 1562 1562 1562 1562 1562 1561 1561 1561 1561 1561 1561 1561 1562 1562 1562 1562 1562 1562 1562 1562 1562 1561 1560 1559 1558 1557 1556 1555 1554
1555 1556 1557 1558 1559 1560 1561 1562 1562 1562 1562 1562 1562 1562 1562 1562 1562 1562 1561 1561 1561 1561 1561 1562 1562 1561 1562 1562 1562 1562 1563 1562 1562 1563 1562 1562 1563 1561 1560 1558 1557 1557 1556
1553 1555 1556 1557 1558 1559 1560 1561 1561 1562 1562 1562 1562 1562 1562 1562 1562 1562 1561 1561 1561 1561 1561 1561 1561 1562 1562 1562 1562 1562 1562 1563 1562 1562 1563 1562 1562 1562 1561 1560 1559 1558 1557
1551 1553 1554 1555 1557 1558 1559 1560 1561 1561 1561 1562 1562 1562 1562 1562 1562 1561 1561 1561 1561 1561 1561 1561 1561 1561 1562 1562 1562 1562 1562 1562 1562 1562 1561 1562 1562 1562 1562 1561 1560 1559 1558
1550 1551 1552 1554 1555 1557 1558 1559 1560 1560 1561 1561 1561 1561 1561 1561 1561 1561 1560 1560 1560 1560 1560 1560 1561 1561 1561 1561 1561 1561 1562 1562 1562 1562 1561 1561 1561 1561 1561 1561 1561 1560 1559
1548 1549 1551 1552 1554 1555 1556 1557 1558 1559 1559 1560 1560 1560 1560 1560 1560 1560 1560 1560 1560 1559 1559 1559 1560 1560 1560 1560 1560 1560 1561 1561 1561 1561 1561 1561 1560 1561 1560 1560 1560 1560 1559
1546 1547 1549 1551 1552 1554 1555 1556 1557 1558 1558 1558 1559 1559 1559 1559 1559 1559 1559 1559 1559 1559 1559 1559 1559 1559 1559 1559 1559 1559 1560 1560 1559 1559 1560 1560 1560 1559 1560 1560 1560 1559 1559
1544 1546 1548 1549 1551 1552 1553 1555 1555 1556 1556 1557 1558 1558 1558 1558 1558 1558 1558 1558 1558 1558 1558 1558 1558 1558 1558 1558 1558 1558 1558 1559 1559 1558 1558 1558 1558 1558 1558 1559 1559 1559 1559
1543 1545 1546 1548 1550 1551 1552 1553 1554 1555 1555 1556 1556 1556 1557 1557 1557 1557 1557 1557 1557 1557 1557 1557 1557 1557 1557 1557 1557 1557 1557 1557 1557 1557 1557 1557 1556 1556 1557 1557 1558 1559 1558
1541 1543 1545 1547 1548 1549 1550 1551 1552 1553 1554 1554 1554 1555 1555 1555 1555 1555 1556 1556 1556 1556 1556 1556 1556 1556 1556 1556 1556 1556 1556 1556 1556 1556 1556 1555 1555 1555 1555 1555 1556 1556 1557
1540 1542 1543 1545 1547 1548 1549 1550 1551 1551 1552 1552 1553 1553 1553 1553 1553 1553 1554 1554 1554 1554 1554 1554 1555 1555 1554 1554 1554 1554 1554 1555 1555 1555 1554 1554 1553 1553 1553 1553 1554 1554 1555
1538 1540 1542 1543 1545 1546 1547 1548 1549 1549 1550 1550 1550 1550 1550 1550 1551 1551 1552 1552 1553 1553 1553 1553 1553 1553 1553 1553 1553 1553 1553 1553 1553 1553 1553 1552 1552 1551 1551 1551 1552 1552 1552
1537 1539 1540 1541 1543 1544 1545 1546 1547 1547 1547 1548 1548 1548 1548 1548 1548 1549 1549 1550 1550 1551 1551 1551 1551 1551 1551 1551 1551 1551 1551 1551 1551 1551 1551 1551 1550 1549 1549 1549 1550 1550 1550
1536 1537 1538 1539 1541 1542 1543 1544 1545 1545 1545 1545 1545 1545 1545 1545 1546 1546 1547 1547 1548 1548 1548 1549 1549 1549 1549 1549 1549 1549 1549 1549 1549 1549 1549 1549 1548 1548 1547 1547 1547 1548 1548
1534 1535 1536 1537 1538 1540 1541 1542 1542 1542 1543 1543 1543 1543 1543 1543 1543 1543 1544 1544 1545 1545 1546 1546 1546 1546 1547 1547 1547 1547 1547 1548 1547 1547 1547 1546 1546 1545 1545 1545 1545 1545 1545
1531 1532 1533 1535 1536 1537 1539 1539 1540 1540 1540 1540 1540 1540 1540 1540 1540 1541 1541 1541 1542 1542 1543 1543 1543 1543 1544 1544 1544 1545 1545 1545 1545 1545 1545 1544 1543 1543 1543 1542 1542 1543 1543
1528 1529 1531 1532 1533 1535 1536 1537 1537 1538 1538 1538 1538 1538 1538 1538 1538 1538 1538 1538 1539 1539 1540 1540 1541 1541 1541 1541 1542 1542 1542 1543 1542 1542 1542 1542 1541 1540 1540 1540 1539 1539 1539
1525 1526 1528 1529 1530 1532 1533 1534 1535 1535 1535 1535 1535 1535 1535 1535 1535 1535 1535 1536 1536 1536 1537 1537 1538 1538 1538 1538 1539 1539 1539 1540 1539 1539 1539 1539 1538 1538 1537 1537 1536 1536 1536
1522 1523 1524 1526 1527 1528 1530 1531 1532 1532 1532 1532 1532 1532 1532 1532 1532 1532 1532 1532 1533 1533 1534 1534 1534 1534 1535 1535 1535 1536 1536 1536 1536 1536 1536 1535 1535 1535 1534 1534 1534 1533 1533
1519 1520 1521 1522 1523 1525 1526 1527 1528 1529 1529 1529 1529 1529 1529 1529 1529 1529 1529 1529 1530 1530 1530 1531 1531 1531 1531 1532 1532 1533 1533 1533 1533 1532 1532 1532 1532 1531 1531 1531 1530 1530 1530
1516 1517 1518 1519 1520 1521 1522 1523 1524 1525 1525 1526 1526 1526 1526 1526 1526 1526 1526 1526 1526 1527 1527 1527 1527 1527 1528 1528 1528 1529 1529 1529 1529 1529 1529 1529 1528 1528 1528 1528 1527 1527 1527
1513 1514 1515 1515 1516 1517 1518 1519 1520 1521 1522 1522 1522 1523 1523 1523 1523 1522 1522 1523 1523 1523 1523 1523 1523 1523 1524 1524 1524 1525 1525 1526 1526 1525 1525 1525 1525 1525 1524 1524 1524 1524 1523
1510 1511 1511 1512 1513 1514 1514 1515 1516 1517 1518 1518 1519 1519 1519 1519 1519 1519 1519 1519 1519 1519 1519 1519 1519 1519 1519 1519 1520 1521 1521 1522 1522 1522 1522 1521 1521 1521 1521 1520 1520 1520 1520
1508 1508 1508 1509 1509 1510 1511 1512 1513 1514 1514 1515 1515 1515 1516 1516 1516 1516 1516 1515 1515 1516 1516 1516 1515 1515 1515 1515 1515 1516 1516 1517 1517 1517 1517 1517 1517 1517 1516 1516 1516 1516 1515
1504 1505 1505 1505 1506 1507 1508 1509 1509 1510 1511 1511 1512 1512 1512 1512 1512 1512 1512 1512 1512 1512 1512 1512 1512 1511 1511 1511 1511 1511 1512 1512 1512 1513 1513 1513 1513 1512 1512 1512 1512 1511 1511
1501 1501 1502 1502 1503 1503 1504 1505 1506 1506 1507 1507 1508 1508 1508 1508 1508 1508 1507 1507 1508 1508 1508 1508 1508 1507 1507 1507 1507 1507 1508 1508 1508 1508 1508 1508 1508 1508 1507 1507 1507 1507 1506